Time,TemperatureF,DewpointF,PressureIn,WindDirection,WindDirectionDegrees,WindSpeedMPH,WindSpeedGustMPH,Humidity,HourlyPrecipIn,Conditions,Clouds,dailyrainin,SoftwareType,DateUTC
2013-01-29 00:01:00,29.0,28.0,-100.00,SSE,160,4.0,7.0,96,0.00,,,0.00,,2013-01-29 06:01:00,
2013-01-29 00:11:00,29.0,28.0,-100.00,SSE,155,4.0,7.0,96,0.00,,,0.00,,2013-01-29 06:11:00,
2013-01-29 00:21:00,29.0,28.0,-100.00,SSE,155,2.0,6.0,96,0.00,,,0.00,,2013-01-29 06:21:00,
2013-01-29 00:32:00,29.0,28.0,-100.00,East,95,4.0,7.0,96,0.00,,,0.00,,2013-01-29 06:32:00,
2013-01-29 00:41:00,29.0,28.0,-100.00,East,85,2.0,4.0,96,0.00,,,0.00,,2013-01-29 06:41:00,
2013-01-29 00:52:00,29.0,28.0,-100.00,SE,125,4.0,7.0,96,0.00,,,0.00,,2013-01-29 06:52:00,
2013-01-29 01:01:00,29.0,28.0,-100.00,ESE,115,4.0,6.0,96,0.00,,,0.00,,2013-01-29 07:01:00,
2013-01-29 01:11:00,29.0,28.0,-100.00,ESE,120,3.0,6.0,96,0.00,,,0.00,,2013-01-29 07:11:00,
2013-01-29 01:21:00,29.0,28.0,-100.00,SE,140,2.0,6.0,96,0.00,,,0.00,,2013-01-29 07:21:00,
2013-01-29 01:31:00,29.0,28.0,-100.00,SE,130,4.0,6.0,96,0.00,,,0.00,,2013-01-29 07:31:00,
2013-01-29 01:41:00,30.0,28.0,-100.00,SE,145,2.0,6.0,96,0.00,,,0.00,,2013-01-29 07:41:00,
2013-01-29 01:52:00,30.0,28.0,-100.00,SSE,155,3.0,6.0,96,0.00,,,0.00,,2013-01-29 07:52:00,
2013-01-29 02:02:00,29.0,28.0,-100.00,SSE,150,3.0,7.0,96,0.00,,,0.00,,2013-01-29 08:02:00,
2013-01-29 02:11:00,29.0,28.0,-100.00,SSE,150,3.0,4.0,96,0.00,,,0.00,,2013-01-29 08:11:00,
2013-01-29 02:21:00,29.0,28.0,-100.00,SSE,150,4.0,6.0,96,0.00,,,0.00,,2013-01-29 08:21:00,
2013-01-29 02:31:00,29.0,28.0,-100.00,SE,145,4.0,6.0,96,0.00,,,0.00,,2013-01-29 08:31:00,
2013-01-29 02:41:00,29.0,28.0,-100.00,ESE,120,4.0,6.0,96,0.00,,,0.00,,2013-01-29 08:41:00,
2013-01-29 02:52:00,29.0,28.0,-100.00,SE,130,4.0,6.0,96,0.00,,,0.00,,2013-01-29 08:52:00,
2013-01-29 03:01:00,29.0,28.0,-100.00,SE,140,2.0,7.0,96,0.00,,,0.00,,2013-01-29 09:01:00,
2013-01-29 03:11:00,29.0,28.0,-100.00,SE,140,2.0,4.0,96,0.00,,,0.00,,2013-01-29 09:11:00,
2013-01-29 03:21:00,29.0,28.0,-100.00,SE,135,2.0,4.0,96,0.00,,,0.00,,2013-01-29 09:21:00,
2013-01-29 03:31:00,29.0,28.0,-100.00,SSE,150,3.0,4.0,96,0.00,,,0.00,,2013-01-29 09:31:00,
2013-01-29 03:42:00,29.0,28.0,-100.00,SE,135,3.0,6.0,96,0.00,,,0.00,,2013-01-29 09:42:00,
2013-01-29 03:51:00,29.0,28.0,-100.00,SE,125,4.0,6.0,96,0.00,,,0.00,,2013-01-29 09:51:00,
2013-01-29 04:01:00,29.0,28.0,-100.00,SE,130,1.0,6.0,96,0.00,,,0.00,,2013-01-29 10:01:00,
2013-01-29 04:11:00,29.0,28.0,-100.00,ESE,105,1.0,3.0,96,0.00,,,0.00,,2013-01-29 10:11:00,
2013-01-29 04:21:00,29.0,28.0,-100.00,ESE,105,4.0,7.0,96,0.00,,,0.00,,2013-01-29 10:21:00,
2013-01-29 04:32:00,29.0,28.0,-100.00,ENE,70,1.0,6.0,96,0.00,,,0.00,,2013-01-29 10:32:00,
2013-01-29 04:41:00,29.0,28.0,-100.00,North,5,2.0,3.0,96,0.00,,,0.00,,2013-01-29 10:41:00,
2013-01-29 04:51:00,29.0,28.0,-100.00,NNW,345,1.0,2.0,96,0.00,,,0.00,,2013-01-29 10:51:00,
2013-01-29 05:01:00,29.0,28.0,-100.00,NE,40,3.0,4.0,96,0.00,,,0.00,,2013-01-29 11:01:00,
2013-01-29 05:11:00,29.0,28.0,-100.00,ENE,65,3.0,4.0,96,0.00,,,0.00,,2013-01-29 11:11:00,
2013-01-29 05:21:00,29.0,28.0,-100.00,NE,35,3.0,6.0,96,0.00,,,0.00,,2013-01-29 11:21:00,
2013-01-29 05:32:00,29.0,28.0,-100.00,NE,55,3.0,4.0,96,0.00,,,0.00,,2013-01-29 11:32:00,
2013-01-29 05:42:00,29.0,28.0,-100.00,NNE,20,3.0,5.0,96,0.00,,,0.00,,2013-01-29 11:42:00,
2013-01-29 05:52:00,29.0,28.0,-100.00,NNE,15,3.0,6.0,96,0.00,,,0.00,,2013-01-29 11:52:00,
2013-01-29 06:02:00,29.0,28.0,-100.00,NNE,15,4.0,6.0,96,0.00,,,0.00,,2013-01-29 12:02:00,
2013-01-29 06:12:00,29.0,28.0,-100.00,NE,45,4.0,6.0,96,0.00,,,0.00,,2013-01-29 12:12:00,
2013-01-29 06:22:00,29.0,28.0,-100.00,NE,45,6.0,7.0,96,0.00,,,0.00,,2013-01-29 12:22:00,
2013-01-29 06:32:00,29.0,28.0,-100.00,NE,40,6.0,8.0,96,0.00,,,0.00,,2013-01-29 12:32:00,
2013-01-29 06:42:00,29.0,28.0,-100.00,NE,40,3.0,6.0,96,0.00,,,0.00,,2013-01-29 12:42:00,
2013-01-29 06:52:00,29.0,28.0,-100.00,NE,35,4.0,6.0,96,0.00,,,0.00,,2013-01-29 12:52:00,
2013-01-29 07:02:00,29.0,28.0,-100.00,North,5,2.0,7.0,96,0.00,,,0.00,,2013-01-29 13:02:00,
2013-01-29 07:11:00,29.0,28.0,-100.00,NE,40,4.0,6.0,96,0.00,,,0.00,,2013-01-29 13:11:00,
2013-01-29 07:22:00,29.0,28.0,-100.00,North,10,2.0,6.0,96,0.00,,,0.00,,2013-01-29 13:22:00,
2013-01-29 07:32:00,29.0,28.0,-100.00,NE,45,4.0,6.0,96,0.00,,,0.00,,2013-01-29 13:32:00,
2013-01-29 07:42:00,29.0,28.0,-100.00,North,10,3.0,6.0,96,0.00,,,0.00,,2013-01-29 13:42:00,
2013-01-29 07:52:00,29.0,28.0,-100.00,NE,45,3.0,5.0,96,0.00,,,0.00,,2013-01-29 13:52:00,
2013-01-29 08:02:00,29.0,28.0,-100.00,NNE,15,2.0,6.0,96,0.00,,,0.00,,2013-01-29 14:02:00,
2013-01-29 08:12:00,29.0,28.0,-100.00,NNE,30,1.0,4.0,96,0.00,,,0.00,,2013-01-29 14:12:00,
2013-01-29 08:21:00,28.0,28.0,-100.00,NE,40,3.0,5.0,96,0.00,,,0.00,,2013-01-29 14:21:00,
2013-01-29 08:33:00,28.0,28.0,-100.00,NE,35,1.0,5.0,96,0.00,,,0.00,,2013-01-29 14:33:00,
2013-01-29 08:43:00,29.0,28.0,-100.00,NE,35,2.0,6.0,96,0.00,,,0.00,,2013-01-29 14:43:00,
2013-01-29 08:52:00,29.0,28.0,-100.00,North,0,4.0,6.0,96,0.00,,,0.00,,2013-01-29 14:52:00,
2013-01-29 09:02:00,29.0,28.0,-100.00,North,0,5.0,7.0,96,0.00,,,0.00,,2013-01-29 15:02:00,
2013-01-29 09:12:00,29.0,28.0,-100.00,North,0,5.0,7.0,96,0.00,,,0.00,,2013-01-29 15:12:00,
2013-01-29 09:22:00,29.0,28.0,-100.00,North,0,3.0,9.0,96,0.00,,,0.00,,2013-01-29 15:22:00,
2013-01-29 09:33:00,29.0,28.0,-100.00,NNE,15,6.0,10.0,96,0.00,,,0.00,,2013-01-29 15:33:00,
2013-01-29 09:42:00,30.0,28.0,-100.00,North,5,4.0,8.0,96,0.00,,,0.00,,2013-01-29 15:42:00,
2013-01-29 09:52:00,30.0,28.0,-100.00,North,5,6.0,9.0,96,0.00,,,0.00,,2013-01-29 15:52:00,
2013-01-29 10:02:00,30.0,28.0,-100.00,North,0,5.0,9.0,95,0.00,,,0.00,,2013-01-29 16:02:00,
2013-01-29 10:12:00,30.0,28.0,-100.00,NNE,15,7.0,11.0,94,0.00,,,0.00,,2013-01-29 16:12:00,
2013-01-29 10:22:00,30.0,28.0,-100.00,North,10,6.0,12.0,94,0.00,,,0.00,,2013-01-29 16:22:00,
2013-01-29 10:32:00,31.0,28.0,-100.00,NNE,15,7.0,12.0,93,0.00,,,0.00,,2013-01-29 16:32:00,
2013-01-29 10:42:00,31.0,28.0,-100.00,North,10,6.0,12.0,93,0.00,,,0.00,,2013-01-29 16:42:00,
2013-01-29 10:52:00,31.0,28.0,-100.00,North,5,9.0,12.0,92,0.00,,,0.00,,2013-01-29 16:52:00,
2013-01-29 11:03:00,31.0,28.0,-100.00,North,10,7.0,12.0,92,0.00,,,0.00,,2013-01-29 17:03:00,
2013-01-29 11:12:00,31.0,28.0,-100.00,NNE,15,6.0,15.0,91,0.00,,,0.00,,2013-01-29 17:12:00,
2013-01-29 11:22:00,31.0,28.0,-100.00,NNE,15,7.0,13.0,91,0.00,,,0.00,,2013-01-29 17:22:00,
2013-01-29 11:32:00,31.0,28.0,-100.00,NNE,30,6.0,11.0,91,0.00,,,0.00,,2013-01-29 17:32:00,
2013-01-29 11:42:00,31.0,28.0,-100.00,NE,35,6.0,12.0,91,0.00,,,0.00,,2013-01-29 17:42:00,
2013-01-29 11:52:00,31.0,28.0,-100.00,NE,35,10.0,16.0,90,0.00,,,0.00,,2013-01-29 17:52:00,
2013-01-29 12:03:00,31.0,28.0,-100.00,NE,35,8.0,16.0,89,0.00,,,0.00,,2013-01-29 18:03:00,
2013-01-29 12:12:00,31.0,28.0,-100.00,North,10,10.0,16.0,90,0.00,,,0.00,,2013-01-29 18:12:00,
2013-01-29 12:22:00,30.0,28.0,-100.00,North,5,9.0,17.0,90,0.00,,,0.00,,2013-01-29 18:22:00,
2013-01-29 12:33:00,30.0,28.0,-100.00,North,10,6.0,14.0,90,0.00,,,0.00,,2013-01-29 18:33:00,
2013-01-29 12:42:00,30.0,27.0,-100.00,North,10,9.0,16.0,89,0.00,,,0.00,,2013-01-29 18:42:00,
2013-01-29 12:51:00,30.0,27.0,-100.00,North,10,8.0,12.0,89,0.00,,,0.00,,2013-01-29 18:51:00,
2013-01-29 13:02:00,30.0,27.0,-100.00,NNE,20,7.0,12.0,88,0.00,,,0.00,,2013-01-29 19:02:00,
2013-01-29 13:12:00,30.0,27.0,-100.00,North,10,6.0,12.0,88,0.00,,,0.00,,2013-01-29 19:12:00,
2013-01-29 13:22:00,30.0,27.0,-100.00,NE,35,7.0,14.0,88,0.00,,,0.00,,2013-01-29 19:22:00,
2013-01-29 13:32:00,30.0,27.0,-100.00,North,0,8.0,14.0,88,0.00,,,0.00,,2013-01-29 19:32:00,
2013-01-29 13:42:00,30.0,27.0,-100.00,NNE,15,8.0,12.0,88,0.00,,,0.00,,2013-01-29 19:42:00,
2013-01-29 13:52:00,29.0,27.0,-100.00,North,5,9.0,16.0,89,0.00,,,0.00,,2013-01-29 19:52:00,
2013-01-29 14:02:00,29.0,27.0,-100.00,NNE,20,9.0,17.0,89,0.00,,,0.00,,2013-01-29 20:02:00,
2013-01-29 14:12:00,29.0,27.0,-100.00,North,0,8.0,16.0,89,0.00,,,0.00,,2013-01-29 20:12:00,
2013-01-29 14:22:00,28.0,25.0,-100.00,North,5,9.0,16.0,89,0.00,,,0.00,,2013-01-29 20:22:00,
2013-01-29 14:33:00,28.0,25.0,-100.00,NNE,20,9.0,14.0,89,0.00,,,0.00,,2013-01-29 20:33:00,
2013-01-29 14:42:00,28.0,25.0,-100.00,North,0,7.0,17.0,89,0.00,,,0.00,,2013-01-29 20:42:00,
2013-01-29 14:53:00,28.0,25.0,-100.00,North,5,6.0,14.0,88,0.00,,,0.00,,2013-01-29 20:53:00,
2013-01-29 15:03:00,28.0,23.0,-100.00,NNE,30,12.0,19.0,85,0.00,,,0.00,,2013-01-29 21:03:00,
2013-01-29 15:12:00,28.0,23.0,-100.00,NE,35,10.0,18.0,85,0.00,,,0.00,,2013-01-29 21:12:00,
2013-01-29 15:22:00,28.0,25.0,-100.00,NE,35,8.0,16.0,86,0.00,,,0.00,,2013-01-29 21:22:00,
2013-01-29 15:33:00,27.0,25.0,-100.00,North,0,7.0,16.0,86,0.00,,,0.00,,2013-01-29 21:33:00,
2013-01-29 15:42:00,27.0,23.0,-100.00,NNE,25,7.0,17.0,86,0.00,,,0.00,,2013-01-29 21:42:00,
2013-01-29 15:52:00,27.0,23.0,-100.00,NNE,30,6.0,12.0,87,0.00,,,0.00,,2013-01-29 21:52:00,
2013-01-29 16:02:00,27.0,23.0,-100.00,NE,45,9.0,13.0,87,0.00,,,0.00,,2013-01-29 22:02:00,
2013-01-29 16:12:00,27.0,23.0,-100.00,NNE,30,9.0,14.0,85,0.00,,,0.00,,2013-01-29 22:12:00,
2013-01-29 16:22:00,27.0,23.0,-100.00,NE,45,10.0,16.0,82,0.00,,,0.00,,2013-01-29 22:22:00,
2013-01-29 16:33:00,27.0,21.0,-100.00,NE,35,8.0,16.0,82,0.00,,,0.00,,2013-01-29 22:33:00,
2013-01-29 16:42:00,27.0,21.0,-100.00,NNE,30,9.0,14.0,81,0.00,,,0.00,,2013-01-29 22:42:00,
2013-01-29 16:52:00,27.0,21.0,-100.00,NNE,15,7.0,21.0,80,0.00,,,0.00,,2013-01-29 22:52:00,
2013-01-29 17:02:00,27.0,21.0,-100.00,NNE,15,6.0,14.0,81,0.00,,,0.00,,2013-01-29 23:02:00,
2013-01-29 17:12:00,27.0,21.0,-100.00,NNE,15,7.0,12.0,81,0.00,,,0.00,,2013-01-29 23:12:00,
2013-01-29 17:22:00,27.0,21.0,-100.00,NNE,30,8.0,12.0,81,0.00,,,0.00,,2013-01-29 23:22:00,
2013-01-29 17:32:00,27.0,21.0,-100.00,NNE,20,7.0,12.0,80,0.00,,,0.00,,2013-01-29 23:32:00,
2013-01-29 17:42:00,27.0,21.0,-100.00,NNE,20,6.0,11.0,80,0.00,,,0.00,,2013-01-29 23:42:00,
2013-01-29 17:52:00,27.0,21.0,-100.00,NE,40,7.0,12.0,80,0.00,,,0.00,,2013-01-29 23:52:00,
2013-01-29 18:02:00,27.0,21.0,-100.00,NE,35,7.0,11.0,79,0.00,,,0.00,,2013-01-30 00:02:00,
2013-01-29 18:12:00,27.0,21.0,-100.00,NNE,30,7.0,12.0,79,0.00,,,0.00,,2013-01-30 00:12:00,
2013-01-29 18:22:00,27.0,21.0,-100.00,NE,35,5.0,9.0,80,0.00,,,0.00,,2013-01-30 00:22:00,
2013-01-29 18:32:00,27.0,21.0,-100.00,NNE,30,10.0,14.0,80,0.00,,,0.00,,2013-01-30 00:32:00,
2013-01-29 18:42:00,27.0,21.0,-100.00,NE,35,7.0,13.0,80,0.00,,,0.00,,2013-01-30 00:42:00,
2013-01-29 18:52:00,26.0,19.0,-100.00,NNE,15,10.0,16.0,77,0.00,,,0.00,,2013-01-30 00:52:00,
2013-01-29 19:02:00,26.0,19.0,-100.00,NNE,25,7.0,17.0,75,0.00,,,0.00,,2013-01-30 01:02:00,
2013-01-29 19:11:00,26.0,19.0,-100.00,NNE,20,9.0,17.0,76,0.00,,,0.00,,2013-01-30 01:11:00,
2013-01-29 19:22:00,26.0,19.0,-100.00,NE,40,9.0,18.0,77,0.00,,,0.00,,2013-01-30 01:22:00,
2013-01-29 19:32:00,26.0,19.0,-100.00,NNE,25,7.0,17.0,77,0.00,,,0.00,,2013-01-30 01:32:00,
2013-01-29 19:42:00,26.0,19.0,-100.00,NE,40,9.0,17.0,76,0.00,,,0.00,,2013-01-30 01:42:00,
2013-01-29 19:52:00,25.0,19.0,-100.00,NE,50,9.0,18.0,75,0.00,,,0.00,,2013-01-30 01:52:00,
2013-01-29 20:02:00,25.0,19.0,-100.00,NE,35,7.0,16.0,78,0.00,,,0.00,,2013-01-30 02:02:00,
2013-01-29 20:12:00,24.0,18.0,-100.00,NE,40,9.0,13.0,78,0.00,,,0.00,,2013-01-30 02:12:00,
2013-01-29 20:22:00,24.0,18.0,-100.00,NE,35,9.0,16.0,79,0.00,,,0.00,,2013-01-30 02:22:00,
2013-01-29 20:33:00,24.0,18.0,-100.00,NE,40,9.0,13.0,79,0.00,,,0.00,,2013-01-30 02:33:00,
2013-01-29 20:42:00,23.0,18.0,-100.00,NE,45,10.0,17.0,80,0.00,,,0.00,,2013-01-30 02:42:00,
2013-01-29 20:52:00,22.0,18.0,-100.00,NE,40,7.0,12.0,80,0.00,,,0.00,,2013-01-30 02:52:00,
2013-01-29 21:03:00,22.0,18.0,-100.00,NE,45,6.0,12.0,81,0.00,,,0.00,,2013-01-30 03:03:00,
2013-01-29 21:11:00,22.0,18.0,-100.00,NE,45,5.0,9.0,81,0.00,,,0.00,,2013-01-30 03:11:00,
2013-01-29 21:22:00,21.0,18.0,-100.00,NE,35,6.0,7.0,83,0.00,,,0.00,,2013-01-30 03:22:00,
2013-01-29 21:32:00,21.0,18.0,-100.00,North,5,5.0,10.0,83,0.00,,,0.00,,2013-01-30 03:32:00,
2013-01-29 21:42:00,21.0,18.0,-100.00,NNE,30,5.0,14.0,84,0.00,,,0.00,,2013-01-30 03:42:00,
2013-01-29 21:51:00,20.0,16.0,-100.00,NNE,20,6.0,9.0,84,0.00,,,0.00,,2013-01-30 03:51:00,
2013-01-29 22:02:00,20.0,16.0,-100.00,NNE,25,7.0,10.0,85,0.00,,,0.00,,2013-01-30 04:02:00,
2013-01-29 22:12:00,20.0,16.0,-100.00,NE,35,6.0,9.0,85,0.00,,,0.00,,2013-01-30 04:12:00,
2013-01-29 22:22:00,20.0,16.0,-100.00,NNE,30,6.0,11.0,86,0.00,,,0.00,,2013-01-30 04:22:00,
2013-01-29 22:32:00,20.0,16.0,-100.00,NNE,25,4.0,9.0,86,0.00,,,0.00,,2013-01-30 04:32:00,
2013-01-29 22:41:00,20.0,18.0,-100.00,North,0,6.0,9.0,86,0.00,,,0.00,,2013-01-30 04:41:00,
2013-01-29 22:52:00,20.0,18.0,-100.00,North,5,4.0,9.0,87,0.00,,,0.00,,2013-01-30 04:52:00,
2013-01-29 23:03:00,20.0,18.0,-100.00,NNE,15,4.0,9.0,87,0.00,,,0.00,,2013-01-30 05:03:00,
2013-01-29 23:12:00,20.0,18.0,-100.00,North,0,4.0,9.0,87,0.00,,,0.00,,2013-01-30 05:12:00,
2013-01-29 23:22:00,20.0,18.0,-100.00,North,10,6.0,9.0,87,0.00,,,0.00,,2013-01-30 05:22:00,
2013-01-29 23:32:00,20.0,18.0,-100.00,North,0,5.0,9.0,87,0.00,,,0.00,,2013-01-30 05:32:00,
2013-01-29 23:42:00,20.0,18.0,-100.00,North,0,6.0,11.0,86,0.00,,,0.00,,2013-01-30 05:42:00,
2013-01-29 23:52:00,20.0,16.0,-100.00,North,0,7.0,11.0,86,0.00,,,0.00,,2013-01-30 05:52:00,